Theta_e
320 318 322 315 301 301 297 299 303 301 303 307 308 308 306 304 304 301 310 313 314 314 316 319 323 324 324 324 326 327 328 330 333 337 339 341 342 345 346 345 347 347 347 347 349 349 349 349 348
316 319 317 309 297 294 296 301 299 304 307 308 308 307 306 299 304 304 307 309 311 312 314 317 321 321 321 322 322 322 323 323 324 326 330 334 336 339 341 344 345 346 348 348 348 348 348 348 348
317 317 306 301 296 293 295 299 303 301 305 306 305 306 305 300 305 306 309 308 308 311 313 314 317 318 318 318 318 318 319 319 320 321 322 323 326 330 335 340 342 344 346 347 347 347 349 347 347
315 310 307 297 294 297 299 301 303 300 303 305 306 301 302 303 305 308 308 308 307 307 310 312 314 315 315 315 315 316 317 317 317 318 318 318 319 321 327 332 336 340 344 345 345 346 347 346 346
314 308 298 295 296 298 300 301 302 301 301 302 304 300 300 303 308 308 307 307 306 306 307 307 310 311 312 313 313 313 313 314 314 314 315 315 316 317 319 321 328 332 339 343 344 345 346 345 345
303 304 294 293 295 298 299 300 300 301 300 300 301 301 300 305 306 306 307 306 306 305 306 305 306 307 308 309 309 311 311 311 312 312 312 312 312 313 315 315 318 325 331 334 339 343 344 344 343
303 298 295 295 295 296 298 299 298 300 299 298 303 299 300 303 306 306 306 306 305 305 305 305 304 306 309 306 306 307 308 309 309 309 309 308 309 310 311 312 314 318 322 329 332 336 341 343 343
303 300 294 295 294 295 297 297 297 298 298 298 299 298 298 303 306 306 306 305 305 304 304 304 304 304 304 305 305 305 306 306 307 307 307 306 308 311 312 310 312 313 316 321 324 329 336 341 342
302 295 293 295 294 296 295 295 296 297 296 296 297 297 300 305 306 304 304 304 304 303 303 303 303 304 304 303 303 307 308 307 307 306 308 307 306 306 307 309 309 310 313 315 319 322 328 336 335
298 294 295 295 296 295 295 295 295 294 295 295 296 298 301 304 303 302 302 302 303 303 303 303 302 303 303 302 303 304 304 304 304 305 305 305 305 305 305 307 310 310 311 314 316 320 324 329 337
295 293 292 292 293 294 294 293 295 294 294 297 296 297 299 301 302 302 302 303 303 303 303 302 302 302 302 302 302 303 303 303 304 304 304 304 304 305 306 307 308 309 309 309 312 317 320 330 336
291 291 291 292 293 292 292 294 293 294 296 297 298 299 300 300 300 301 301 302 302 302 302 301 300 301 302 302 302 302 301 302 302 302 303 302 302 303 303 304 305 308 308 309 311 314 319 322 326
291 291 292 292 292 293 293 292 293 294 298 297 297 297 298 299 300 302 303 304 303 301 301 300 300 300 300 300 301 301 301 301 301 301 302 301 300 301 302 303 304 305 306 307 308 310 312 319 321
292 292 291 292 293 293 291 293 291 294 297 297 296 297 298 299 300 300 301 301 301 301 300 299 299 299 300 299 300 300 300 300 300 300 300 300 300 300 300 301 302 303 305 306 306 306 308 311 318
292 289 291 292 292 291 291 289 289 295 296 295 296 296 298 298 299 298 300 301 302 301 300 298 297 297 298 298 299 299 299 299 299 299 300 300 300 300 299 300 300 302 303 304 305 306 307 307 310
289 289 287 290 290 291 290 287 292 294 294 293 295 296 297 298 298 299 300 301 302 300 298 298 297 297 297 297 297 297 298 298 298 298 299 299 299 299 298 300 300 302 303 303 303 304 306 306 307
289 289 285 287 290 289 288 287 292 293 292 292 294 295 296 297 298 298 298 300 300 299 298 297 297 296 296 296 296 297 297 297 298 298 298 298 298 298 298 298 300 301 301 303 303 303 304 305 306
289 286 286 285 287 287 286 286 290 293 292 292 293 294 295 296 297 298 298 299 299 298 297 297 296 296 296 296 296 296 296 296 297 297 297 297 297 297 297 298 298 299 298 300 302 302 304 305 306
286 285 285 288 288 284 286 287 289 293 293 292 293 293 293 294 296 297 298 298 297 297 296 296 295 295 294 294 293 293 292 294 294 295 297 296 297 296 296 297 297 298 295 296 299 301 300 302 305
286 284 285 287 286 285 285 284 288 290 290 291 291 292 293 294 294 295 296 296 296 296 297 296 295 295 294 293 293 293 292 293 293 294 295 296 296 297 296 295 295 296 294 294 295 298 299 301 303
286 284 284 282 285 287 283 286 290 288 290 291 292 293 293 294 293 294 294 295 296 296 296 296 295 294 294 293 292 292 293 293 292 294 294 294 294 295 295 294 292 293 294 293 293 295 296 297 301
284 285 283 282 281 281 284 279 287 289 287 288 291 292 293 293 293 294 294 295 296 297 297 296 295 294 294 292 290 290 289 289 291 292 293 293 293 292 293 292 291 291 293 292 293 294 295 296 296
283 285 283 281 280 278 281 279 286 286 285 287 290 292 292 293 293 293 294 295 296 297 296 296 295 294 293 291 290 289 289 291 291 291 290 291 291 292 291 291 291 291 292 293 293 294 294 295 296
285 282 281 280 280 277 275 278 284 287 286 287 289 290 290 291 292 292 293 294 294 295 295 295 294 293 291 289 289 289 289 289 289 289 288 288 288 289 290 290 290 292 292 293 293 294 295 296 297
283 282 280 279 278 279 273 276 283 287 287 288 288 289 290 291 291 291 291 292 292 292 294 294 292 289 288 288 289 290 289 288 287 286 285 284 285 286 288 289 289 290 291 292 293 294 294 296 296
282 280 279 274 276 278 271 276 285 286 286 289 288 289 289 289 290 291 291 291 290 291 291 291 290 287 287 288 289 289 289 288 287 285 284 285 285 286 287 288 289 290 291 292 292 293 294 296 296
281 278 279 276 269 273 281 283 286 285 284 286 287 287 288 290 291 291 291 290 289 289 290 289 286 285 286 288 288 288 288 287 285 285 285 286 286 287 288 289 289 290 290 291 292 292 294 295 297
281 281 278 279 273 273 280 279 281 286 285 285 285 288 289 289 289 291 290 289 288 288 288 286 285 284 287 287 287 287 286 286 285 285 285 285 286 287 288 289 289 289 290 291 292 293 294 296 296
278 279 278 278 277 275 274 280 288 286 285 284 286 288 286 286 288 289 288 287 287 287 285 284 284 286 286 287 286 286 286 286 286 285 285 286 287 288 288 288 289 290 290 291 292 293 293 294 295
282 282 281 278 276 276 274 276 285 287 286 284 284 285 287 287 287 287 287 285 285 286 284 283 283 285 286 285 285 285 285 285 285 285 286 287 287 289 288 288 288 289 289 290 290 291 293 294 294
Wind_Speed
13 5 4 5 7 7 12 8 1 6 6 2 0 4 9 14 7 4 7 8 8 8 11 14 16 17 19 20 20 20 20 19 19 18 16 15 16 15 12 10 6 6 7 8 6 8 9 10 10
6 3 5 3 8 10 10 7 9 5 8 6 5 2 3 7 10 14 11 8 8 8 11 12 14 17 18 19 20 20 20 20 19 19 18 17 16 15 14 13 11 9 10 11 10 9 9 10 10
7 5 4 5 9 10 2 5 8 6 6 5 5 5 3 6 12 7 13 9 9 9 11 11 14 16 17 18 19 19 19 19 19 18 17 17 17 16 15 13 13 11 11 12 12 11 10 8 9
5 5 4 8 9 2 6 4 9 8 5 1 1 7 7 6 8 11 12 9 9 9 10 12 14 15 16 17 17 17 18 18 17 17 17 16 16 16 15 14 14 15 12 11 11 11 10 10 10
5 4 7 9 7 3 3 5 5 7 6 6 3 7 6 6 11 13 11 7 8 8 8 10 13 14 15 17 17 17 17 16 16 15 15 16 16 15 14 14 14 14 14 12 11 11 10 11 11
5 5 7 10 8 4 4 5 5 6 4 5 5 8 6 12 12 11 9 7 7 8 7 7 10 12 12 14 17 16 16 16 16 15 14 15 16 14 14 14 14 14 13 14 14 12 10 11 13
8 6 10 6 3 5 5 5 7 8 7 6 3 7 7 12 11 10 8 6 6 6 6 6 6 7 9 10 15 17 17 17 16 14 14 15 14 11 14 13 14 12 15 14 14 14 12 11 11
5 4 5 6 7 5 6 6 1 5 6 4 2 4 6 14 13 9 7 6 5 5 5 5 5 6 8 8 11 12 14 16 17 15 13 16 14 9 10 12 9 15 15 15 15 16 15 12 12
3 5 7 9 7 3 6 8 3 2 4 4 3 2 4 16 14 11 8 7 5 5 4 4 4 5 7 6 8 8 10 11 12 13 13 13 9 11 12 13 14 16 16 15 15 15 17 12 11
4 5 6 7 5 1 6 6 5 5 8 8 7 4 6 14 13 12 10 9 8 6 6 3 3 5 6 6 8 7 8 8 9 10 11 9 11 10 11 11 13 15 15 14 16 15 14 12 8
0 4 3 3 4 3 2 3 3 6 8 10 10 12 11 13 12 11 10 8 6 5 4 3 3 4 5 5 5 4 5 6 7 10 10 10 9 8 8 7 7 7 8 8 9 8 7 9 8
3 1 2 2 2 1 2 3 5 11 9 6 2 5 13 13 11 10 9 8 7 7 5 3 2 4 5 5 5 6 6 7 7 9 10 8 7 8 9 7 9 7 7 9 8 6 8 10 10
1 3 1 2 1 2 3 8 9 11 12 4 4 4 11 11 10 8 8 7 7 7 6 3 2 4 5 6 5 6 7 6 8 8 9 8 9 9 10 9 9 9 9 9 9 9 9 9 10
2 2 1 1 0 2 5 7 2 3 4 15 12 10 10 11 10 8 8 9 10 8 5 1 3 4 5 5 6 6 6 7 7 7 8 10 8 9 10 10 10 10 9 9 9 10 9 9 8
3 2 2 3 0 2 5 10 14 13 6 8 16 14 12 13 10 10 10 10 10 7 5 4 3 3 5 6 6 6 6 7 7 8 10 11 10 10 11 9 10 10 10 12 10 11 10 10 10
2 3 3 5 1 3 2 8 5 1 6 10 11 13 15 15 13 9 9 10 9 8 7 4 3 4 5 6 6 6 7 7 8 8 8 11 11 12 11 9 9 9 9 9 10 9 9 9 10
1 2 4 4 2 2 6 9 4 3 6 10 10 13 14 14 15 11 11 10 9 9 7 5 4 5 5 6 6 7 9 7 7 8 8 11 12 12 11 10 10 11 9 9 9 9 10 9 9
2 4 3 6 4 4 10 18 23 17 17 19 16 15 16 17 17 10 11 9 8 7 6 5 5 5 5 6 6 6 7 8 8 8 9 12 10 13 12 10 12 10 9 10 9 11 9 10 10
3 5 9 9 4 6 13 14 22 17 16 17 16 14 13 12 8 7 9 9 9 7 7 6 6 6 5 6 7 7 8 9 9 9 12 13 11 13 12 10 11 9 9 12 14 11 12 9 9
3 4 6 8 2 5 13 20 24 18 7 6 4 5 5 5 6 8 10 10 9 9 8 7 7 7 6 6 7 7 9 9 10 10 12 13 13 12 11 12 9 9 9 11 11 13 10 9 9
4 4 6 6 10 8 12 13 6 4 4 4 4 2 3 6 7 8 9 10 10 10 9 8 8 8 8 9 8 8 9 9 9 9 9 10 13 13 13 13 11 9 8 9 11 9 13 10 9
3 4 3 5 7 4 5 7 11 6 6 7 8 7 7 7 5 4 6 8 10 10 8 8 9 9 8 9 9 12 11 12 10 10 9 10 14 15 14 13 12 12 8 10 9 10 10 11 11
3 3 3 2 3 5 4 4 4 3 6 8 9 6 6 4 2 2 6 9 10 9 9 9 9 9 9 9 10 10 12 11 10 11 14 13 12 14 14 13 13 11 8 10 11 10 11 10 11
2 4 4 3 2 5 3 4 5 1 1 7 8 7 6 6 4 2 4 6 9 9 9 9 10 10 10 10 11 13 15 15 12 12 11 10 10 9 11 12 11 11 10 10 10 12 14 13 12
1 3 3 4 4 3 1 5 10 5 1 5 8 7 7 4 3 8 10 9 9 10 9 8 9 11 10 11 11 13 14 15 16 14 10 12 9 9 10 11 10 9 11 11 11 11 12 13 12
3 1 3 6 3 6 2 7 2 2 1 7 1 2 3 5 6 8 12 11 11 10 8 8 9 10 10 11 12 12 13 8 9 10 10 9 9 9 12 12 12 12 13 13 13 10 11 13 14
4 3 3 1 2 3 5 5 11 3 3 7 6 4 5 7 8 10 14 11 10 9 8 7 8 10 10 11 11 12 12 12 11 14 11 9 11 10 12 12 12 13 13 14 14 11 12 14 13
2 2 2 3 4 6 5 5 8 1 1 0 7 4 4 8 9 10 11 11 8 7 6 7 8 9 11 12 11 11 12 12 12 12 12 13 12 14 13 13 13 13 13 13 14 12 14 13 13
4 4 3 3 3 5 7 1 4 5 5 6 3 4 7 8 10 9 9 9 8 7 6 7 7 8 10 10 11 12 12 12 12 11 12 11 12 12 12 13 13 13 13 12 13 13 15 16 16
2 3 7 5 6 5 5 8 5 4 1 2 7 8 9 8 9 7 8 8 8 7 6 7 7 7 9 10 11 12 12 11 11 11 11 10 11 10 11 12 12 11 12 12 12 13 12 13 14
Wind_Direction
281 265 268 239 222 235 242 205 25 176 177 36 338 287 63 41 8 69 116 99 91 72 57 60 46 46 46 47 47 44 40 37 34 29 26 28 24 17 357 341 320 287 269 259 238 220 217 203 191
278 258 227 244 251 211 226 165 201 156 84 122 111 120 64 79 66 118 128 106 86 72 65 56 53 51 47 45 43 40 36 32 29 27 24 18 12 8 4 357 335 308 275 259 247 241 225 219 209
251 239 217 223 235 253 266 163 132 125 160 172 121 18 57 88 122 106 109 119 99 80 69 59 56 55 51 46 41 37 33 29 26 21 18 14 10 3 357 351 347 335 307 281 267 247 235 229 215
204 192 228 246 219 169 11 132 128 145 142 196 68 109 96 10 120 123 128 122 101 86 72 63 55 52 48 45 40 34 29 24 20 14 12 8 3 357 354 349 344 342 329 293 279 270 249 233 218
225 249 234 236 239 89 117 97 191 179 138 155 191 124 97 115 115 132 134 132 113 95 83 69 53 48 44 40 35 30 26 21 16 10 6 360 355 349 346 345 336 335 333 324 288 279 268 247 232
213 284 237 231 200 126 139 143 190 202 156 128 205 139 114 135 149 135 139 121 109 105 94 89 82 49 38 32 25 20 17 12 8 4 1 356 346 339 338 334 334 326 327 325 320 305 275 258 238
260 235 256 292 270 194 174 156 206 196 180 159 32 183 113 164 152 148 133 115 109 100 96 79 54 42 37 34 21 7 5 4 3 358 354 349 336 328 330 328 322 332 322 315 312 305 303 275 256
280 268 245 233 223 223 126 176 330 229 183 89 292 192 171 173 155 152 148 140 123 110 104 83 58 31 16 4 47 359 359 354 353 353 349 337 314 331 313 306 328 318 312 309 306 300 292 282 261
296 242 245 244 237 98 135 193 164 33 258 203 168 307 61 140 158 166 169 176 157 147 129 98 47 23 8 351 14 348 358 345 347 348 347 334 334 325 320 329 311 303 301 296 294 291 288 283 269
244 249 263 26 25 58 157 234 169 226 204 220 203 145 158 150 174 185 196 195 195 183 152 116 69 22 1 353 356 347 350 346 342 338 337 332 324 320 304 281 275 280 277 280 278 278 276 269 262
144 286 40 66 48 358 145 225 213 241 235 234 223 193 179 181 192 206 213 221 213 174 159 115 36 16 9 2 339 347 341 340 334 333 338 324 322 316 314 310 306 308 297 291 278 271 271 272 246
218 75 359 85 55 27 218 338 247 237 250 342 270 217 182 199 201 211 225 227 194 196 166 160 39 6 12 349 346 337 335 337 325 332 320 323 315 315 308 304 302 300 294 295 289 282 269 269 280
239 135 86 87 123 290 289 257 270 265 250 201 174 212 193 207 214 220 222 237 204 203 192 195 16 7 2 346 340 329 321 317 322 309 315 313 313 306 304 299 297 293 290 286 283 279 273 263 266
90 144 126 200 213 264 288 276 315 199 247 222 211 218 217 217 216 225 229 230 213 211 204 209 349 359 339 322 315 311 308 314 311 309 310 307 298 296 297 297 297 293 289 285 283 282 283 277 261
125 204 201 197 125 312 322 261 235 252 190 237 226 223 226 216 214 244 256 231 224 204 194 220 278 316 315 316 318 311 310 316 315 314 310 303 296 294 294 290 288 288 288 286 281 276 270 267 268
233 244 254 123 207 113 291 277 175 253 231 234 229 221 222 216 226 257 252 237 209 197 205 198 242 294 304 309 309 309 316 314 309 310 307 303 298 294 290 286 283 285 287 284 279 276 272 270 266
54 263 253 168 123 296 225 289 76 220 233 249 232 226 222 229 233 241 251 225 188 202 209 222 246 273 293 301 303 302 298 299 298 296 298 297 296 291 284 282 280 286 284 279 280 277 275 273 270
312 286 242 277 88 265 261 266 278 264 235 255 257 252 240 236 243 265 237 206 195 204 218 237 251 277 300 300 298 298 298 291 296 297 291 294 291 290 285 280 278 275 282 279 270 272 273 275 280
332 304 290 292 59 308 273 277 279 279 266 258 258 255 259 259 265 225 194 194 203 218 232 246 272 288 304 306 309 304 301 300 297 291 297 294 287 287 284 279 280 282 277 279 288 279 276 270 263
315 318 292 289 53 293 294 289 276 283 274 253 230 205 190 185 182 182 189 201 214 232 236 254 269 287 296 297 295 294 293 288 289 286 278 280 283 280 278 278 273 263 265 270 271 283 286 272 271
281 268 300 294 323 257 297 273 220 161 186 180 196 157 164 171 179 187 205 218 227 238 250 262 275 287 293 295 294 288 285 279 282 285 296 296 292 288 281 279 276 280 275 272 271 273 276 287 269
282 19 317 321 336 298 18 289 280 177 209 198 172 185 142 146 161 191 218 234 245 254 258 269 272 282 291 295 289 286 288 290 291 296 291 293 291 285 283 276 270 266 265 263 264 262 257 266 276
346 337 313 294 274 317 158 248 259 157 168 167 166 147 127 123 138 213 248 258 264 268 264 270 279 282 289 287 283 285 286 289 297 293 294 289 289 287 281 275 272 272 269 265 260 264 268 267 262
78 306 264 247 240 241 92 284 269 280 206 135 142 140 140 117 86 15 304 289 283 275 262 264 275 282 288 284 284 284 288 293 294 293 296 293 290 292 291 284 275 267 264 263 262 260 253 253 254
275 281 270 224 211 296 338 264 264 298 22 153 171 164 137 123 49 9 335 316 302 295 276 263 277 283 289 289 288 289 292 293 292 299 297 289 288 284 281 284 280 275 274 272 269 270 270 260 258
193 327 304 287 297 345 188 242 232 126 310 259 75 140 222 250 265 313 336 316 301 298 284 278 283 285 294 296 297 299 296 291 292 286 283 280 278 280 284 280 278 277 275 272 268 263 259 255 253
135 211 39 285 117 266 239 248 268 68 345 235 202 271 257 289 281 297 318 301 296 292 288 287 286 292 297 302 302 299 297 296 294 290 285 281 277 274 274 276 277 274 273 271 271 265 266 264 264
258 47 188 186 271 265 227 252 251 350 51 282 175 204 309 289 276 298 300 299 298 289 283 282 288 294 296 300 302 301 303 299 293 290 282 285 284 283 280 278 274 271 269 268 265 266 264 261 267
148 202 221 311 255 271 297 216 186 208 189 191 238 276 262 265 272 274 285 295 287 272 265 276 285 288 298 305 306 304 301 302 299 294 291 285 282 281 281 282 281 276 274 272 267 263 273 269 267
241 255 209 236 182 243 292 270 203 195 180 232 266 260 269 247 263 261 287 291 275 259 263 278 287 296 309 311 309 306 308 309 307 296 292 292 286 292 288 293 291 289 281 280 279 275 279 275 283